Powrót do katalogu

PSLV DEB

AktywnySSO
NORAD 41792·DEBRIS·🇮🇳 India

Wystrzelony Sep 26, 2016 z Satish Dhawan Space Centre

Loading…

Następne Przeloty (najbliższe 24 godziny)

TLE

ŚwieżeSource: Space-Track

Epoka: Sep 13, 2026, 22:22 UTC

1 41792U 16059K   26256.93197979  .00002013  00000-0  27061-3 0  9994
2 41792  97.7750 275.5032 0019508 218.5958 141.3861 14.80228817534002

Śledź PSLV DEB w czasie rzeczywistym z AllMySat

Download on the App Store